| time (UTC) | temp F | wind direction | speed MPH | gust MPH | rain 1hr in | rain 24hr in | rain mn in | humidity % | barometer mb |
| 20260507200108 | 63 | 246 | 1.0 | 5.0 | 0.00 | 0.66 | 0.02 | 31 | 1024.2 |
| 20260507194554 | 64 | 0 | 1.0 | 8.0 | 0.00 | 0.75 | 0.02 | 30 | 1024.2 |
| 20260507193053 | 64 | 230 | 1.0 | 7.0 | 0.00 | 0.75 | 0.02 | 32 | 1024.2 |
| 20260507191549 | 64 | 229 | 2.0 | 7.0 | 0.00 | 0.75 | 0.02 | 34 | 1024.3 |
| 20260507190055 | 62 | 360 | 3.0 | 11.0 | 0.00 | 0.75 | 0.02 | 35 | 1024.5 |
| 20260507184551 | 62 | 24 | 2.0 | 9.0 | 0.00 | 0.77 | 0.02 | 33 | 1024.6 |
| 20260507183056 | 61 | 0 | 0.0 | 2.0 | 0.00 | 0.77 | 0.02 | 35 | 1024.8 |
| 20260507181550 | 61 | 0 | 0.0 | 5.0 | 0.00 | 0.77 | 0.02 | 34 | 1024.9 |
| 20260507180052 | 60 | 307 | 0.0 | 3.0 | 0.00 | 0.77 | 0.02 | 39 | 1025.1 |
| 20260507174558 | 59 | 0 | 0.0 | 0.0 | 0.00 | 0.80 | 0.02 | 38 | 1025.0 |
| 20260507173059 | 59 | 0 | 0.0 | 0.0 | 0.00 | 0.80 | 0.02 | 41 | 1025.1 |
| 20260507171603 | 59 | 0 | 0.0 | 0.0 | 0.00 | 0.80 | 0.02 | 39 | 1025.3 |
| 20260507170056 | 59 | 0 | 0.0 | 0.0 | 0.00 | 0.80 | 0.02 | 39 | 1025.2 |
| 20260507164549 | 60 | 0 | 0.0 | 0.0 | 0.00 | 0.83 | 0.02 | 37 | 1025.3 |
| 20260507163056 | 60 | 0 | 0.0 | 3.0 | 0.00 | 0.83 | 0.02 | 38 | 1025.3 |
| 20260507161602 | 60 | 310 | 0.0 | 7.0 | 0.00 | 0.83 | 0.02 | 37 | 1025.5 |
| 20260507160052 | 60 | 242 | 1.0 | 6.0 | 0.00 | 0.83 | 0.02 | 36 | 1025.6 |
| 20260507154553 | 61 | 271 | 2.0 | 9.0 | 0.00 | 0.84 | 0.02 | 35 | 1025.6 |
| 20260507153111 | 60 | 263 | 2.0 | 5.0 | 0.00 | 0.84 | 0.02 | 35 | 1025.6 |
| 20260507151601 | 60 | 0 | 1.0 | 5.0 | 0.00 | 0.84 | 0.02 | 36 | 1025.7 |
| 20260507144552 | 57 | 35 | 1.0 | 5.0 | 0.00 | 0.85 | 0.02 | 39 | 1025.5 |
| 20260507143058 | 56 | 254 | 1.0 | 5.0 | 0.00 | 0.85 | 0.02 | 40 | 1025.5 |
| 20260507141557 | 54 | 0 | 1.0 | 4.0 | 0.00 | 0.85 | 0.02 | 42 | 1025.6 |
| 20260507140056 | 52 | 39 | 1.0 | 4.0 | 0.01 | 0.85 | 0.02 | 44 | 1025.3 |
| 20260507134553 | 51 | 0 | 0.0 | 5.0 | 0.01 | 0.85 | 0.02 | 46 | 1025.5 |
| 20260507133057 | 51 | 0 | 0.0 | 2.0 | 0.01 | 0.85 | 0.02 | 45 | 1025.4 |
| 20260507131553 | 50 | 0 | 0.0 | 4.0 | 0.01 | 0.85 | 0.02 | 44 | 1025.3 |
| 20260507130108 | 50 | 286 | 3.0 | 10.0 | 0.00 | 0.84 | 0.01 | 42 | 1025.2 |
| 20260507124613 | 49 | 247 | 3.0 | 9.0 | 0.00 | 0.84 | 0.01 | 44 | 1025.1 |
| 20260507123104 | 48 | 227 | 5.0 | 12.0 | 0.00 | 0.84 | 0.01 | 45 | 1025.0 |
| 20260507121558 | 47 | 242 | 4.0 | 11.0 | 0.00 | 0.84 | 0.01 | 46 | 1025.1 |
| 20260507120055 | 47 | 234 | 2.0 | 10.0 | 0.00 | 0.84 | 0.01 | 46 | 1025.0 |
| 20260507114554 | 47 | 236 | 3.0 | 10.0 | 0.00 | 0.84 | 0.01 | 45 | 1024.9 |
| 20260507113050 | 47 | 250 | 1.0 | 8.0 | 0.01 | 0.84 | 0.01 | 45 | 1025.0 |
| 20260507111558 | 47 | 215 | 0.0 | 4.0 | 0.01 | 0.84 | 0.01 | 43 | 1024.9 |
| 20260507110057 | 47 | 243 | 1.0 | 8.0 | 0.01 | 0.84 | 0.01 | 43 | 1024.8 |
| 20260507104555 | 47 | 236 | 2.0 | 11.0 | 0.01 | 0.84 | 0.01 | 44 | 1025.0 |
| 20260507103049 | 46 | 221 | 0.0 | 4.0 | 0.00 | 0.83 | 0.00 | 46 | 1025.0 |
| 20260507101559 | 47 | 0 | 0.0 | 3.0 | 0.00 | 0.83 | 0.00 | 46 | 1025.2 |
| 20260507094552 | 47 | 264 | 4.0 | 9.0 | 0.00 | 0.83 | 0.00 | 45 | 1025.0 |
| 20260507093053 | 45 | 257 | 3.0 | 9.0 | 0.00 | 0.83 | 0.00 | 46 | 1025.2 |
| 20260507091550 | 43 | 229 | 2.0 | 7.0 | 0.00 | 0.83 | 0.00 | 50 | 1025.5 |
| 20260507090050 | 41 | 352 | 1.0 | 4.0 | 0.00 | 0.83 | 0.00 | 54 | 1025.7 |
| 20260507084601 | 41 | 314 | 0.0 | 3.0 | 0.00 | 0.83 | 0.00 | 55 | 1025.2 |
| 20260507083110 | 43 | 0 | 0.0 | 3.0 | 0.00 | 0.83 | 0.00 | 53 | 1025.3 |
| 20260507081600 | 43 | 336 | 0.0 | 5.0 | 0.00 | 0.83 | 0.00 | 48 | 1025.6 |
| 20260507080058 | 43 | 198 | 1.0 | 7.0 | 0.00 | 0.83 | 0.00 | 50 | 1026.0 |
| 20260507074558 | 41 | 273 | 3.0 | 11.0 | 0.00 | 0.83 | 0.00 | 56 | 1026.0 |
| 20260507073054 | 33 | 202 | 1.0 | 4.0 | 0.00 | 0.83 | 0.00 | 84 | 1026.2 |
| 20260507071551 | 32 | 0 | 0.0 | 2.0 | 0.00 | 0.83 | 0.00 | 85 | 1026.3 |
| 20260507070054 | 32 | 329 | 0.0 | 4.0 | 0.00 | 0.83 | 0.00 | 86 | 1026.6 |
| 20260507064552 | 32 | 0 | 0.0 | 2.0 | 0.00 | 0.83 | 0.00 | 86 | 1026.6 |
| 20260507063052 | 32 | 237 | 1.0 | 7.0 | 0.00 | 0.83 | 0.00 | 86 | 1026.6 |
| 20260507061552 | 32 | 0 | 0.0 | 0.0 | 0.00 | 0.83 | 0.00 | 86 | 1026.4 |
| 20260507060059 | 32 | 0 | 0.0 | 0.0 | 0.00 | 0.83 | 0.00 | 86 | 1026.9 |
| 20260507054554 | 32 | 0 | 0.0 | 0.0 | 0.00 | 0.83 | 0.83 | 86 | 1026.7 |
| 20260507053053 | 32 | 0 | 0.0 | 0.0 | 0.00 | 0.83 | 0.83 | 86 | 1026.8 |
| 20260507051552 | 32 | 0 | 0.0 | 4.0 | 0.00 | 0.83 | 0.83 | 85 | 1026.9 |
| 20260507050052 | 31 | 0 | 0.0 | 0.0 | 0.00 | 0.83 | 0.83 | 84 | 1027.0 |
| 20260507044550 | 32 | 0 | 0.0 | 0.0 | 0.00 | 0.83 | 0.83 | 84 | 1027.1 |
| 20260507043054 | 32 | 0 | 0.0 | 0.0 | 0.00 | 0.83 | 0.83 | 84 | 1027.0 |
| 20260507041552 | 32 | 0 | 0.0 | 1.0 | 0.00 | 0.83 | 0.83 | 83 | 1027.0 |
| 20260507040054 | 32 | 0 | 0.0 | 1.0 | 0.00 | 0.83 | 0.83 | 82 | 1027.1 |
| 20260507034548 | 33 | 329 | 1.0 | 5.0 | 0.00 | 0.83 | 0.83 | 81 | 1027.2 |
| 20260507033055 | 33 | 0 | 0.0 | 0.0 | 0.00 | 0.83 | 0.83 | 80 | 1027.0 |
| 20260507031551 | 33 | 0 | 0.0 | 1.0 | 0.00 | 0.83 | 0.83 | 79 | 1027.0 |
| 20260507030059 | 34 | 0 | 0.0 | 0.0 | 0.00 | 0.83 | 0.83 | 78 | 1026.9 |
| 20260507024613 | 34 | 0 | 0.0 | 0.0 | 0.00 | 0.83 | 0.83 | 76 | 1027.0 |
| 20260507023051 | 35 | 0 | 0.0 | 0.0 | 0.00 | 0.83 | 0.83 | 75 | 1026.8 |
| 20260507021552 | 36 | 0 | 0.0 | 3.0 | 0.00 | 0.83 | 0.83 | 75 | 1026.7 |
| 20260507020104 | 36 | 0 | 0.0 | 2.0 | 0.01 | 0.83 | 0.83 | 73 | 1026.7 |
| 20260507014605 | 37 | 148 | 0.0 | 1.0 | 0.01 | 0.83 | 0.83 | 72 | 1026.7 |
| 20260507013055 | 38 | 155 | 0.0 | 2.0 | 0.02 | 0.83 | 0.83 | 71 | 1026.7 |
| 20260507011548 | 39 | 148 | 0.0 | 2.0 | 0.02 | 0.82 | 0.82 | 70 | 1026.8 |
| 20260507010052 | 40 | 0 | 0.0 | 1.0 | 0.03 | 0.82 | 0.82 | 68 | 1026.9 |
| 20260507004552 | 41 | 0 | 0.0 | 0.0 | 0.06 | 0.82 | 0.82 | 66 | 1027.1 |
| 20260507003054 | 42 | 0 | 0.0 | 3.0 | 0.07 | 0.81 | 0.81 | 65 | 1027.1 |
| 20260507001601 | 43 | 0 | 1.0 | 4.0 | 0.09 | 0.80 | 0.80 | 65 | 1027.3 |
| 20260507000053 | 42 | 0 | 0.0 | 6.0 | 0.09 | 0.78 | 0.78 | 68 | 1027.4 |
| 20260506234556 | 41 | 0 | 0.0 | 2.0 | 0.10 | 0.76 | 0.76 | 69 | 1027.4 |
| 20260506233049 | 41 | 136 | 0.0 | 4.0 | 0.11 | 0.74 | 0.74 | 70 | 1027.3 |
| 20260506231556 | 40 | 0 | 0.0 | 11.0 | 0.12 | 0.71 | 0.71 | 68 | 1027.6 |
| 20260506230100 | 40 | 118 | 0.0 | 5.0 | 0.14 | 0.69 | 0.69 | 71 | 1027.5 |
| 20260506224552 | 39 | 132 | 0.0 | 4.0 | 0.15 | 0.67 | 0.66 | 71 | 1027.7 |
| 20260506223058 | 39 | 0 | 0.0 | 6.0 | 0.16 | 0.64 | 0.63 | 69 | 1027.8 |
| 20260506221554 | 41 | 0 | 0.0 | 3.0 | 0.17 | 0.60 | 0.58 | 71 | 1028.0 |
| 20260506220055 | 38 | 184 | 0.0 | 3.0 | 0.17 | 0.56 | 0.55 | 69 | 1028.2 |
| 20260506214549 | 38 | 0 | 0.0 | 3.0 | 0.17 | 0.55 | 0.51 | 69 | 1028.4 |
| 20260506213104 | 38 | 197 | 1.0 | 4.0 | 0.17 | 0.51 | 0.47 | 72 | 1028.4 |
| 20260506211604 | 37 | 129 | 0.0 | 3.0 | 0.17 | 0.45 | 0.41 | 75 | 1028.5 |
| 20260506210048 | 36 | 0 | 0.0 | 0.0 | 0.18 | 0.42 | 0.38 | 75 | 1028.6 |
| 20260506204556 | 36 | 0 | 0.0 | 0.0 | 0.20 | 0.40 | 0.34 | 75 | 1028.9 |
| 20260506203052 | 36 | 0 | 0.0 | 4.0 | 0.17 | 0.36 | 0.30 | 76 | 1029.0 |
| 20260506201559 | 36 | 0 | 0.0 | 3.0 | 0.13 | 0.30 | 0.24 | 77 | 1029.1 |